• In Russia
  • List of Countries
  • For 7 days
  • Water Temperature
  • Satellite Maps
  • Weather Map
  • Weather Widgets
  • user-avatar
    Login

    Hourly Weather Kisujszallas

    Today, 24 August, Thursday

    Time Temperature Precipitation Wind Pressure Humidity
    00:00 +16°C° 0 mm 1 mps 756 mmHg 52%
    01:00 +15°C° 0 mm 1 mps 756 mmHg 53%
    02:00 +15°C° 0 mm 1 mps 756 mmHg 54%
    03:00 +15°C° 0 mm 1 mps 756 mmHg 55%
    04:00 +14°C° 0 mm 1 mps 756 mmHg 56%
    05:00 +16°C° 0 mm 1 mps 757 mmHg 53%
    06:00 +18°C° 0 mm 1 mps 757 mmHg 49%
    07:00 +19°C° 0 mm 1 mps 757 mmHg 46%
    08:00 +20°C° 0 mm 2 mps 757 mmHg 41%
    09:00 +23°C° 0 mm 2 mps 757 mmHg 35%
    10:00 +25°C° 0 mm 3 mps 757 mmHg 30%
    11:00 +27°C° 0 mm 3 mps 757 mmHg 28%
    12:00 +28°C° 0 mm 3 mps 757 mmHg 26%
    13:00 +29°C° 0 mm 3 mps 757 mmHg 24%
    14:00 +30°C° 0 mm 3 mps 756 mmHg 23%
    15:00 +30°C° 0 mm 3 mps 756 mmHg 23%
    16:00 +30°C° 0 mm 3 mps 756 mmHg 22%
    17:00 +28°C° 0 mm 2 mps 756 mmHg 26%
    18:00 +26°C° 0 mm 1 mps 756 mmHg 29%
    19:00 +22°C° 0 mm 0 mps 756 mmHg 33%
    20:00 +23°C° 0 mm 1 mps 756 mmHg 35%
    21:00 +21°C° 0 mm 2 mps 756 mmHg 37%
    22:00 +21°C° 0 mm 2 mps 757 mmHg 39%
    23:00 +20°C° 0 mm 3 mps 757 mmHg 41%

    Tomorrow, 25 August, Friday

    Time Temperature Precipitation Wind Pressure Humidity
    00:00 +20°C° 0 mm 3 mps 757 mmHg 43%
    01:00 +19°C° 0 mm 3 mps 757 mmHg 45%
    02:00 +19°C° 0 mm 3 mps 757 mmHg 47%
    03:00 +18°C° 0 mm 3 mps 757 mmHg 48%
    04:00 +18°C° 0 mm 3 mps 757 mmHg 49%
    05:00 +19°C° 0 mm 3 mps 757 mmHg 47%
    06:00 +21°C° 0 mm 3 mps 757 mmHg 45%
    07:00 +22°C° 0 mm 3 mps 757 mmHg 42%
    08:00 +25°C° 0 mm 3 mps 757 mmHg 37%
    09:00 +28°C° 0 mm 3 mps 757 mmHg 33%
    10:00 +32°C° 0 mm 4 mps 757 mmHg 28%
    11:00 +33°C° 0 mm 4 mps 757 mmHg 26%
    12:00 +35°C° 0 mm 4 mps 757 mmHg 24%
    13:00 +36°C° 0 mm 4 mps 756 mmHg 22%
    14:00 +36°C° 0 mm 3 mps 756 mmHg 21%
    15:00 +37°C° 0 mm 3 mps 755 mmHg 21%
    16:00 +37°C° 0 mm 3 mps 755 mmHg 20%
    17:00 +34°C° 0 mm 3 mps 755 mmHg 24%
    18:00 +31°C° 0 mm 3 mps 755 mmHg 27%
    19:00 +29°C° 0 mm 3 mps 755 mmHg 31%
    20:00 +28°C° 0 mm 3 mps 755 mmHg 32%
    21:00 +27°C° 0 mm 3 mps 755 mmHg 33%
    22:00 +26°C° 0 mm 3 mps 755 mmHg 35%
    23:00 +26°C° 0 mm 3 mps 755 mmHg 36%

    Day after tomorrow, 26 August, Saturday

    Time Temperature Precipitation Wind Pressure Humidity
    00:00 +25°C° 0 mm 3 mps 755 mmHg 37%
    01:00 +24°C° 0 mm 3 mps 755 mmHg 38%
    02:00 +24°C° 0 mm 3 mps 755 mmHg 39%
    03:00 +22°C° 0 mm 3 mps 755 mmHg 40%
    04:00 +21°C° 0 mm 3 mps 755 mmHg 41%
    05:00 +22°C° 0 mm 3 mps 755 mmHg 39%
    06:00 +25°C° 0 mm 3 mps 756 mmHg 36%
    07:00 +26°C° 0 mm 3 mps 756 mmHg 34%
    08:00 +28°C° 0 mm 3 mps 756 mmHg 30%
    09:00 +30°C° 0 mm 3 mps 756 mmHg 26%
    10:00 +34°C° 0 mm 3 mps 756 mmHg 22%
    11:00 +35°C° 0 mm 3 mps 755 mmHg 21%
    12:00 +36°C° 0 mm 3 mps 755 mmHg 19%
    13:00 +38°C° 0 mm 3 mps 755 mmHg 18%
    14:00 +38°C° 0 mm 2 mps 754 mmHg 18%
    15:00 +38°C° 0 mm 2 mps 754 mmHg 18%
    16:00 +38°C° 0 mm 2 mps 754 mmHg 18%
    17:00 +36°C° 0 mm 2 mps 754 mmHg 21%
    18:00 +34°C° 0 mm 2 mps 754 mmHg 24%
    19:00 +30°C° 0 mm 2 mps 754 mmHg 27%
    20:00 +29°C° 0 mm 2 mps 754 mmHg 28%
    21:00 +28°C° 0 mm 2 mps 754 mmHg 29%
    22:00 +27°C° 0 mm 2 mps 754 mmHg 30%
    23:00 +26°C° 0 mm 2 mps 754 mmHg 31%

    27 August, Sunday

    Time Temperature Precipitation Wind Pressure Humidity
    00:00 +26°C° 0 mm 2 mps 754 mmHg 32%
    01:00 +25°C° 0 mm 1 mps 754 mmHg 33%
    02:00 +24°C° 0 mm 1 mps 754 mmHg 34%
    03:00 +24°C° 0 mm 1 mps 754 mmHg 35%
    04:00 +23°C° 0 mm 2 mps 754 mmHg 36%
    05:00 +24°C° 0 mm 2 mps 754 mmHg 35%
    06:00 +25°C° 0 mm 2 mps 754 mmHg 34%
    07:00 +27°C° 0 mm 2 mps 755 mmHg 32%
    08:00 +29°C° 0 mm 2 mps 755 mmHg 28%
    09:00 +32°C° 0 mm 2 mps 755 mmHg 24%
    10:00 +35°C° 0 mm 3 mps 755 mmHg 20%
    11:00 +36°C° 0 mm 3 mps 754 mmHg 18%
    12:00 +38°C° 0 mm 3 mps 754 mmHg 16%
    13:00 +39°C° 0 mm 3 mps 754 mmHg 15%
    14:00 +39°C° 0 mm 2 mps 753 mmHg 15%
    15:00 +39°C° 0 mm 2 mps 753 mmHg 15%
    16:00 +39°C° 0 mm 1 mps 753 mmHg 15%
    17:00 +37°C° 0 mm 2 mps 753 mmHg 17%
    18:00 +35°C° 0 mm 2 mps 753 mmHg 20%
    19:00 +31°C° 0 mm 2 mps 753 mmHg 22%
    20:00 +30°C° 0 mm 2 mps 753 mmHg 24%
    21:00 +29°C° 0 mm 2 mps 753 mmHg 25%
    22:00 +29°C° 0 mm 2 mps 753 mmHg 26%
    23:00 +28°C° 0 mm 2 mps 753 mmHg 27%

    28 August, Monday

    Time Temperature Precipitation Wind Pressure Humidity
    00:00 +27°C° 0 mm 2 mps 753 mmHg 28%
    01:00 +26°C° 0 mm 2 mps 752 mmHg 29%
    02:00 +26°C° 0 mm 2 mps 752 mmHg 30%
    03:00 +25°C° 0 mm 2 mps 752 mmHg 31%
    04:00 +25°C° 0 mm 2 mps 752 mmHg 32%
    05:00 +26°C° 0.1 mm 2 mps 753 mmHg 32%
    06:00 +27°C° 0.1 mm 2 mps 753 mmHg 31%
    07:00 +28°C° 0.1 mm 2 mps 753 mmHg 31%
    08:00 +30°C° 0.2 mm 2 mps 753 mmHg 29%
    09:00 +32°C° 0.2 mm 2 mps 753 mmHg 27%
    10:00 +35°C° 0.2 mm 3 mps 753 mmHg 25%
    11:00 +35°C° 0.1 mm 3 mps 753 mmHg 25%
    12:00 +36°C° 0.1 mm 3 mps 752 mmHg 26%
    13:00 +36°C° 0.1 mm 3 mps 752 mmHg 27%
    14:00 +36°C° 0 mm 3 mps 752 mmHg 27%
    15:00 +36°C° 0 mm 3 mps 752 mmHg 27%
    16:00 +36°C° 0 mm 3 mps 752 mmHg 27%
    17:00 +34°C° 0.1 mm 3 mps 752 mmHg 32%
    18:00 +31°C° 0.1 mm 3 mps 752 mmHg 36%
    19:00 +30°C° 0.1 mm 3 mps 752 mmHg 40%
    20:00 +29°C° 0 mm 3 mps 753 mmHg 44%
    21:00 +28°C° 0 mm 3 mps 753 mmHg 47%
    22:00 +27°C° 0 mm 4 mps 753 mmHg 51%
    23:00 +26°C° 0 mm 3 mps 753 mmHg 55%

    29 August, Tuesday

    Time Temperature Precipitation Wind Pressure Humidity
    00:00 +25°C° 0 mm 3 mps 753 mmHg 59%
    01:00 +24°C° 0 mm 3 mps 753 mmHg 63%
    02:00 +24°C° 0 mm 3 mps 753 mmHg 65%
    03:00 +22°C° 0 mm 3 mps 754 mmHg 68%
    04:00 +21°C° 0 mm 3 mps 754 mmHg 71%
    05:00 +22°C° 0 mm 4 mps 754 mmHg 66%
    06:00 +23°C° 0 mm 4 mps 754 mmHg 61%
    07:00 +25°C° 0 mm 4 mps 754 mmHg 56%
    08:00 +27°C° 0 mm 4 mps 754 mmHg 49%
    09:00 +28°C° 0 mm 4 mps 754 mmHg 43%
    10:00 +30°C° 0 mm 4 mps 754 mmHg 36%
    11:00 +32°C° 0 mm 4 mps 754 mmHg 34%
    12:00 +31°C° 0 mm 3 mps 754 mmHg 32%
    13:00 +33°C° 0 mm 3 mps 754 mmHg 30%
    14:00 +33°C° 0 mm 3 mps 753 mmHg 30%
    15:00 +33°C° 0 mm 3 mps 753 mmHg 30%
    16:00 +33°C° 0 mm 3 mps 753 mmHg 29%
    17:00 +31°C° 0 mm 3 mps 753 mmHg 33%
    18:00 +29°C° 0 mm 2 mps 753 mmHg 37%
    19:00 +27°C° 0 mm 2 mps 753 mmHg 40%
    20:00 +26°C° 0 mm 2 mps 754 mmHg 42%
    21:00 +25°C° 0 mm 2 mps 754 mmHg 44%
    22:00 +25°C° 0 mm 2 mps 754 mmHg 45%
    23:00 +24°C° 0 mm 2 mps 754 mmHg 47%
    Show more